CZ-6A DEB, 60621

Orbit data source: Space-Track

CZ-6A DEB, 60621 is space debris in LEO originally from a launch on Tue, 06 Aug 2024 UTC launched from the Taiyaun Space Center, China (TSC). Debris objects in space refer to the collection of defunct objects orbiting the Earth. Examples of debris include non-operational satellites, rocket bodies, and fragments generated from explosions, collisions, or faulty payload assembly.

Loading next visibility...
Identifier
60621, 2024-140W
Orbit
LEO
Country
Flag of CNCN / PRC
Related business
Manufacturer
SAST
Mission
Spacecraft
Bus & Motor
Unknown
Mass
Unknown
Launch date (UTC)
2024-08-06 (2 years ago)
Launch vehicle
Unknown
Launch site
Taiyaun Space Center, China (TSC)
Object type
Payload
Rocket body
Debris
Shape & HBR
Unknown shape, 0.4 m
Radar Cross Section
Medium (>0.1 m² and <1 m²)

Expand to show TLE details & history
Last TLE update: 16 hours ago

TLE from 16 hours ago
0 CZ-6A DEB
1 60621U 24140W   26171.24303670  .00005067  00000-0  77186-3 0  9998
2 60621  89.0122 269.6152 0105198 210.9729 148.5259 14.70066985 99710
Epoch: 2026-06-20T05:49Z
TLE epoch observation values (Epoch: 2026-06-20T05:49:58.370Z)
Latitude
-0.00011°
Longitude
-86.33847°
Altitude
727.357 km
Speed
7.458 km/s
True Right ascension
17h 58m 27s
True Declination
0° 00' 00"
Sunlit
Object was in full shadow at epoch
Visualization orbit readout
Latitude
Unknown
Longitude
Unknown
Altitude
Unknown
Speed
Unknown
Apparent Right ascension
Unknown
Apparent Declination
Unknown
Sunlit
N/A
Visualization observer readout
Local Sidereal Time
08:42:37
Azimuth
Unknown
Elevation
Unknown
Doppler factor
Unknown
Orbital elements
Apogee altitude
731.749 km
Perigee altitude
583.718 km
Semi-major axis
7,035.87 km
Eccentricity
0.01052
Inclination
89.0122°
RAAN
269.6152°
Arg. of periapsis
210.9729°
True anomaly
149.1483°
Mean anomaly
148.5259°
Eccentric anomaly
148.8378°
Mean motion
3.67762 °/min
Orbital period
97.89 mins
BSTAR
0.00077186
Loading maneuver chart data...
Computing Atmospheric mass density...
Loading historical data...
Loading historical data...
Loading historical data...
Loading historical data...
Loading historical data...
Loading historical data...
Loading historical data...

Documentation

Showing up to 5 results
|